Back to catalog

YAOGAN 28

AliveMilitarySSO
NORAD 41026·PAYLOAD·🇨🇳 China

Launched Nov 8, 2015 from Taiyuan Satellite Launch Center

Loading…

Next Passes (next 24 hours)

TLE

FreshSource: Space-Track

Epoch: Sep 14, 2026, 14:03 UTC

1 41026U 15064A   26257.58553738  .00006542  00000-0  23877-3 0  9992
2 41026  97.3204  34.1581 0009226 228.6967 131.3480 15.28431468604339

Track YAOGAN 28 in real time with AllMySat

Download on the App Store